Temp_Advection
nan nan nan nan nan nan nan nan nan nan nan nan nan nan nan nan nan nan nan nan nan nan nan nan nan nan nan nan nan nan nan nan nan nan nan nan nan nan nan nan nan nan
nan -1 -1 -0 -0 -0 -0 0 0 0 0 0 0 0 -0 -0 -0 -0 -0 -0 -0 -0 -0 -0 -0 -0 0 -0 -0 -0 -0 -0 -0 0 0 0 -0 0 0 0 -0 nan
nan -0 -0 -1 -1 -1 -0 0 0 0 0 0 0 0 0 -0 -0 -0 -0 -0 0 -0 -0 -0 -0 0 0 -0 -0 -0 -0 -0 0 0 -0 -0 -0 -0 0 0 -0 nan
nan -0 -0 -0 -1 -1 -1 -0 -0 0 0 -0 -0 -0 -0 -0 -0 -0 -0 -0 0 -0 -0 -0 0 0 0 -0 -0 -0 -0 -0 -0 -0 -0 -0 0 0 0 -0 -0 nan
nan -0 -0 -0 -0 -0 -0 -0 -0 -0 -0 -0 -0 -0 -0 -0 -0 -0 -0 0 -0 -0 -0 -0 0 0 -0 -0 -0 0 0 0 0 0 0 0 0 0 -0 -0 0 nan
nan -0 -0 0 0 0 0 0 0 -0 -0 -0 -0 -0 -0 -0 -0 -0 0 0 0 -0 -0 -0 0 0 -0 -0 0 0 0 0 0 0 0 0 0 -0 -0 0 0 nan
nan 0 0 0 1 1 1 0 0 0 -0 -0 -0 -0 -0 -0 -0 0 0 0 0 0 0 0 0 0 0 -0 0 0 0 0 0 0 0 0 -0 -0 -0 0 0 nan
nan 0 0 1 1 1 0 0 0 -0 -0 -0 -0 -0 -0 -0 -0 -0 0 0 0 0 0 0 0 -0 -0 -0 0 0 0 -0 -0 0 0 -0 -0 -0 -0 -0 -0 nan
nan 0 0 1 0 0 -0 -0 -0 -0 -0 -0 -0 -0 -0 -0 -0 -0 0 0 0 0 0 0 -0 -0 -0 -0 0 0 0 0 -0 -0 0 0 0 -0 -0 -0 -0 nan
nan -0 -0 0 0 0 -0 -0 -0 -0 -0 -0 -0 -0 -0 -0 -0 0 0 0 0 0 0 -0 -0 0 0 0 0 0 0 0 0 -0 0 0 0 -0 -0 -0 -0 nan
nan -0 -0 -0 -0 -0 -0 -0 -1 -0 -0 -0 -0 -0 -0 -0 -0 0 0 0 0 0 0 -0 0 0 0 0 0 -0 -0 0 -0 0 0 -0 0 0 -0 0 0 nan
nan -1 -0 -0 -0 -0 -0 -0 -0 -0 -0 -0 -0 -0 0 -0 -0 0 0 0 0 0 0 -0 -0 -0 -1 -0 0 0 0 0 -0 -0 -0 -0 -0 -0 -0 -0 -0 nan
nan -0 -0 -0 -0 -0 -0 -0 -0 0 -0 -0 -0 0 0 0 0 0 0 0 0 0 0 0 0 -0 -0 -0 0 0 0 0 0 -0 -0 -0 -0 -0 -0 0 0 nan
nan 0 0 0 -0 -0 -0 -0 0 0 -0 -0 0 0 0 0 0 0 0 0 0 0 0 0 0 -0 -0 0 0 0 0 0 0 -0 -0 -0 -0 -0 0 0 1 nan
nan -0 0 0 -0 0 0 0 0 -0 -0 -0 0 0 0 0 0 0 0 0 -0 -0 -0 0 0 0 0 0 0 0 0 -0 0 0 -0 -0 -0 0 0 0 0 nan
nan -1 -0 -0 -0 0 0 0 0 -0 -0 -0 0 0 0 0 0 0 0 0 -0 -0 -0 0 0 0 0 0 0 0 0 -0 0 0 0 -0 -0 0 0 -0 -0 nan
nan -0 0 0 0 0 0 0 0 0 0 -0 0 0 0 0 0 0 0 0 -0 -0 -0 0 1 0 0 0 0 0 0 0 0 0 0 0 -0 -0 0 0 -0 nan
nan 0 0 0 0 0 0 0 0 0 0 0 0 0 0 0 0 0 0 0 -0 -0 -0 0 1 0 -0 0 0 0 0 -0 -0 -0 -0 -0 -0 -0 0 0 0 nan
nan 1 0 0 0 0 0 0 0 0 -0 0 0 0 0 0 0 0 0 -0 -0 -0 0 1 1 -0 -0 -0 0 0 0 0 -0 -0 0 0 -0 -0 0 0 0 nan
nan 1 0 0 0 0 0 0 0 -0 0 0 0 0 0 0 0 0 0 0 -0 -0 0 0 0 -0 -0 0 0 0 0 0 -0 -0 0 0 -0 -0 -0 0 0 nan
nan 0 0 0 0 0 0 0 0 -0 0 0 0 0 0 0 0 0 0 0 0 -0 0 0 0 -0 -0 0 0 0 0 0 0 0 0 -0 -0 0 0 -0 -0 nan
nan 0 0 0 0 0 0 0 -0 0 -0 -0 0 0 0 0 0 0 0 0 0 -0 0 0 -0 -0 -0 -0 0 0 0 0 0 0 0 -0 -0 0 0 0 -0 nan
nan 0 -0 -0 0 0 0 0 0 -0 -0 -0 0 -0 -0 0 0 0 1 1 0 -0 0 0 -0 -0 -0 -0 0 0 1 1 0 0 -0 -0 -0 0 0 -0 -0 nan
nan 0 0 0 0 0 0 0 0 -0 -0 -0 0 0 1 1 0 1 1 0 -0 -0 0 -0 -0 -0 0 0 0 0 1 1 0 0 -0 -0 0 0 -0 -0 -0 nan
nan 0 0 0 -0 0 0 0 -0 -0 -0 -0 0 1 1 0 0 0 -0 -0 -0 0 0 0 0 0 0 0 0 0 0 0 0 0 -0 -0 0 0 -0 -0 -0 nan
nan nan nan nan nan nan nan nan nan nan nan nan nan nan nan nan nan nan nan nan nan nan nan nan nan nan nan nan nan nan nan nan nan nan nan nan nan nan nan nan nan nan
Wind_Speed
23 24 24 22 21 20 19 19 18 17 16 15 16 16 16 15 12 9 8 8 8 8 9 9 8 8 8 9 8 8 8 8 8 6 6 6 6 6 7 7 7 8
22 22 22 21 20 18 18 17 17 17 16 15 13 12 12 13 13 12 11 10 10 10 9 9 9 8 8 9 8 8 8 8 7 6 7 7 6 6 7 7 7 6
22 21 21 21 20 20 18 16 14 15 15 15 13 10 9 10 11 15 15 14 13 12 10 9 9 9 8 8 8 8 7 7 7 7 7 7 7 6 6 7 7 5
23 21 21 20 20 19 19 18 16 15 14 14 13 13 12 10 10 12 15 15 15 14 11 9 9 9 9 9 8 8 7 7 6 7 7 7 6 6 6 7 6 6
24 22 21 20 19 18 18 19 18 17 16 15 14 15 16 14 12 11 12 13 14 15 14 11 10 9 9 9 9 8 8 7 7 7 6 5 5 5 6 6 4 5
24 23 22 20 19 18 18 18 17 17 18 18 16 16 16 16 15 13 12 12 12 13 14 13 13 12 10 9 9 9 8 8 7 7 6 5 5 6 6 7 6 7
23 22 22 21 19 18 18 16 15 15 16 16 15 15 15 15 16 15 14 13 13 12 11 11 12 13 11 9 9 9 8 7 7 7 8 8 7 7 6 7 8 10
22 21 21 21 20 19 19 18 16 15 13 13 13 13 12 13 14 14 14 14 14 13 12 10 9 10 10 10 10 10 10 9 8 7 10 11 9 8 8 8 9 10
21 20 20 20 21 21 20 19 17 16 14 13 14 14 13 13 14 14 14 14 15 15 14 12 11 10 12 13 13 13 13 12 11 9 9 10 10 10 9 7 7 7
21 19 18 17 19 20 20 18 17 16 16 15 14 15 15 15 15 15 16 16 14 15 16 15 14 14 14 15 14 14 15 14 13 12 10 10 11 12 10 8 7 7
21 20 19 17 16 17 18 17 17 16 17 16 15 15 15 15 15 16 16 16 14 14 17 18 18 17 16 15 15 15 16 16 15 14 13 12 12 12 12 11 10 10
21 20 20 19 17 16 16 16 17 18 18 18 17 16 16 15 16 17 16 16 16 16 18 19 19 18 16 16 17 16 17 16 14 13 14 14 14 13 13 13 14 15
22 21 20 20 19 18 18 18 19 19 18 18 18 17 18 18 18 18 17 17 17 17 19 19 18 18 18 18 17 16 16 15 13 13 15 15 15 15 14 14 15 16
20 23 22 21 20 19 19 21 21 19 17 18 17 16 18 19 19 19 19 19 18 18 19 19 18 18 18 17 14 13 13 13 13 15 16 15 16 16 15 15 15 13
16 20 21 20 21 21 21 21 20 20 20 20 19 17 16 16 17 17 18 19 19 19 19 20 19 18 17 15 13 12 13 13 13 13 14 15 16 16 16 16 16 14
17 18 19 20 20 20 20 19 18 19 21 22 23 21 19 17 16 16 17 19 20 19 18 19 19 18 15 12 11 12 14 15 14 13 13 13 13 14 16 16 16 15
18 17 18 20 21 19 19 19 18 19 20 21 22 22 22 20 18 17 17 18 18 17 17 17 18 17 14 12 12 13 14 15 15 15 14 13 13 14 15 15 14 14
18 16 16 18 19 19 19 19 19 19 20 21 22 22 22 21 20 19 19 18 17 15 15 15 16 16 14 12 12 14 15 15 15 16 16 15 14 14 14 14 14 13
16 16 17 17 17 19 20 20 19 18 18 20 21 22 22 21 21 20 20 19 16 15 15 15 15 15 14 12 12 12 14 15 15 16 15 15 14 14 13 13 13 12
16 16 16 16 17 18 19 19 19 18 17 18 18 20 20 20 21 21 21 20 18 16 16 16 16 16 15 14 13 11 12 14 15 15 15 14 14 12 11 10 10 10
18 18 17 17 17 18 17 18 18 18 18 18 19 19 19 19 20 20 20 20 18 18 18 18 17 16 15 14 13 12 12 12 13 14 14 14 13 12 11 10 9 9
16 15 15 16 16 16 16 17 18 19 19 20 20 20 20 20 19 19 19 19 18 19 20 19 18 16 15 14 14 14 14 13 12 14 14 14 13 12 12 10 9 10
14 12 12 14 15 15 16 17 18 19 19 20 21 22 22 21 20 19 19 18 18 20 21 20 18 17 15 13 12 13 14 13 13 13 13 14 13 13 12 11 11 11
12 12 12 14 14 14 15 16 17 18 19 20 21 22 23 21 20 20 19 17 18 20 20 20 19 18 16 13 12 12 12 12 13 13 14 14 14 14 13 12 12 12
10 10 11 11 12 12 13 15 16 16 18 19 20 21 20 19 20 21 20 19 18 19 19 18 17 16 15 13 12 12 11 10 10 11 11 12 12 12 12 12 12 12
6 6 6 7 8 9 10 11 12 13 15 16 17 17 18 20 24 25 21 18 18 18 18 17 14 12 12 11 11 11 11 11 10 9 10 11 11 12 13 13 13 13
Wind_Direction
195 193 195 194 197 203 203 203 202 203 203 200 202 200 196 203 202 205 220 216 214 217 213 209 207 204 203 207 211 210 214 222 225 224 224 221 214 213 209 200 218 249
202 198 198 196 196 200 205 207 202 201 204 203 202 198 197 202 199 200 217 229 234 234 226 218 214 210 209 212 214 215 218 221 226 226 221 220 218 213 205 199 214 253
205 203 203 204 202 201 202 207 208 202 202 207 207 201 206 215 205 198 205 219 231 238 236 222 217 218 217 220 219 216 218 220 222 224 220 223 225 214 206 208 212 238
206 207 207 209 210 209 204 203 207 205 204 211 213 207 210 225 227 209 206 215 224 233 238 226 216 220 222 225 227 225 225 224 223 226 229 231 230 220 219 223 214 218
208 209 209 210 212 214 212 208 206 205 207 211 213 212 208 208 222 233 228 224 225 233 241 240 231 229 229 227 228 230 230 231 232 233 233 235 242 245 231 221 221 231
212 213 212 212 213 214 215 216 213 209 209 211 212 216 214 205 207 223 237 240 240 239 240 242 240 240 243 242 239 238 232 232 236 234 232 238 252 260 237 213 224 248
215 216 215 214 213 213 214 217 219 218 216 218 216 215 218 216 210 212 223 236 249 254 248 241 238 240 248 256 258 256 250 247 246 237 235 246 256 261 256 237 230 235
219 219 217 215 211 210 213 215 219 223 223 224 224 222 223 226 224 224 226 228 236 249 254 249 243 242 249 259 264 265 265 264 263 247 233 243 260 268 272 270 254 247
220 223 221 218 214 211 214 215 217 223 226 225 225 229 232 233 231 234 237 234 229 233 240 246 248 246 250 255 256 259 261 261 266 265 243 240 256 268 275 278 270 268
215 224 226 225 221 215 214 216 219 222 227 229 227 226 230 234 232 231 238 243 240 233 231 234 237 237 241 244 243 248 254 251 253 262 260 252 255 260 265 272 274 274
209 217 223 227 227 220 214 215 220 224 230 233 233 231 230 232 233 233 238 243 241 232 229 233 236 235 238 242 240 242 247 245 242 249 258 261 261 259 257 257 260 262
208 212 218 222 227 225 217 216 220 224 231 235 236 235 231 229 233 235 237 238 236 233 234 241 245 242 243 250 248 243 246 247 241 241 250 253 255 257 254 252 252 253
209 211 214 219 224 223 218 218 220 221 224 228 230 231 229 230 235 237 236 237 239 238 240 246 251 251 253 255 252 245 245 248 245 244 249 250 252 257 259 258 254 252
210 206 207 211 215 217 219 220 224 226 226 225 226 228 228 229 235 240 241 244 248 249 249 250 252 255 257 252 245 243 244 248 250 250 252 253 255 260 263 260 256 256
222 208 209 214 214 218 225 225 228 234 236 233 233 234 236 236 240 244 245 247 251 254 256 256 254 256 258 248 237 240 245 248 251 252 256 259 259 261 262 260 262 269
228 216 217 223 222 224 228 228 232 239 242 242 240 242 247 250 248 246 246 248 250 251 257 260 257 256 258 250 238 238 242 244 247 251 257 261 263 262 260 262 267 271
225 223 221 225 227 229 232 233 237 243 245 246 245 246 252 255 254 251 251 252 250 251 259 261 252 250 256 257 248 243 245 246 248 251 254 256 258 260 260 263 268 270
226 229 229 231 233 237 240 240 241 242 244 246 247 249 251 253 254 251 249 250 251 255 259 254 246 245 251 259 256 249 249 250 250 252 254 256 258 260 262 263 264 267
231 234 239 242 243 245 248 248 247 247 248 249 250 252 253 253 253 250 248 249 252 254 253 247 244 242 242 253 261 256 250 247 248 252 253 256 260 263 265 266 265 268
234 235 238 242 245 248 250 249 249 250 251 252 252 253 254 255 255 254 252 251 250 249 246 242 240 241 244 254 263 259 248 245 246 249 251 253 258 261 263 266 270 276
229 227 227 232 237 243 246 246 249 252 253 254 254 253 252 253 255 256 255 252 247 243 241 238 237 242 249 257 259 256 251 249 247 244 243 245 249 252 255 260 267 277
224 223 225 231 236 243 247 249 251 251 251 253 254 253 252 251 252 254 254 250 242 238 237 237 237 243 249 253 258 261 257 250 245 241 237 238 242 248 252 256 265 274
226 227 232 238 242 247 250 250 251 250 250 252 254 256 256 254 253 254 254 248 240 236 235 235 237 241 243 244 253 261 255 243 241 243 242 242 246 252 255 259 265 270
225 228 232 235 239 244 249 253 257 257 256 255 256 257 257 256 255 250 240 229 230 233 230 230 234 236 237 236 240 250 251 242 238 242 247 250 252 255 258 260 265 270
221 230 236 240 246 251 256 262 264 264 262 258 254 254 257 258 252 239 223 213 220 229 228 227 227 227 231 234 235 241 246 242 237 240 249 257 258 258 257 257 260 265
218 233 243 254 262 266 268 268 266 266 263 258 256 257 256 245 232 222 214 211 218 224 228 229 225 225 236 246 248 245 244 245 247 247 251 259 261 258 257 255 254 256
Height
1560 1562 1563 1564 1566 1566 1567 1568 1569 1569 1570 1571 1571 1572 1573 1573 1574 1575 1576 1576 1577 1578 1578 1578 1579 1579 1579 1580 1580 1580 1581 1581 1581 1582 1582 1582 1583 1583 1583 1584 1583 1583
1559 1560 1562 1563 1564 1565 1566 1567 1568 1568 1569 1570 1570 1571 1572 1573 1573 1574 1575 1575 1576 1577 1577 1577 1578 1578 1579 1579 1579 1580 1580 1580 1581 1581 1581 1582 1582 1582 1583 1583 1583 1583
1557 1559 1560 1561 1562 1564 1565 1566 1567 1568 1568 1569 1570 1571 1571 1572 1573 1573 1574 1574 1575 1576 1576 1576 1577 1577 1578 1578 1579 1579 1579 1580 1580 1580 1580 1581 1581 1582 1582 1582 1582 1582
1555 1557 1558 1560 1561 1562 1564 1565 1566 1567 1568 1569 1569 1570 1571 1571 1572 1572 1573 1573 1574 1574 1574 1575 1576 1576 1577 1577 1578 1578 1578 1579 1579 1579 1579 1580 1580 1580 1581 1581 1581 1582
1554 1556 1557 1559 1560 1561 1563 1564 1565 1566 1567 1568 1569 1570 1570 1571 1571 1572 1572 1573 1573 1573 1573 1574 1574 1575 1576 1576 1577 1577 1577 1578 1578 1578 1578 1579 1579 1579 1580 1580 1581 1581
1553 1554 1556 1557 1559 1560 1562 1562 1564 1565 1566 1567 1568 1569 1569 1570 1571 1571 1571 1572 1572 1572 1573 1573 1573 1574 1574 1575 1575 1576 1576 1576 1577 1577 1577 1577 1578 1578 1578 1579 1579 1580
1551 1553 1554 1556 1558 1559 1560 1561 1562 1563 1564 1565 1566 1567 1568 1569 1569 1570 1570 1571 1571 1571 1572 1572 1572 1573 1573 1574 1574 1574 1575 1575 1576 1576 1576 1576 1576 1577 1577 1578 1578 1578
1550 1552 1553 1555 1557 1558 1559 1560 1561 1562 1563 1564 1565 1566 1566 1567 1568 1568 1569 1570 1570 1570 1571 1571 1572 1572 1572 1573 1573 1573 1574 1574 1575 1575 1575 1575 1575 1576 1576 1576 1576 1577
1549 1550 1552 1554 1555 1557 1558 1559 1560 1561 1562 1563 1563 1564 1565 1565 1566 1567 1567 1568 1569 1569 1570 1570 1571 1572 1572 1572 1572 1573 1573 1573 1573 1573 1574 1574 1574 1574 1575 1575 1575 1575
1548 1549 1551 1552 1554 1555 1557 1558 1559 1560 1561 1562 1562 1563 1563 1564 1565 1565 1566 1566 1567 1568 1569 1569 1570 1571 1571 1571 1571 1572 1571 1571 1572 1572 1572 1572 1572 1573 1573 1573 1573 1573
1546 1548 1549 1551 1552 1554 1555 1557 1558 1559 1560 1560 1560 1561 1562 1562 1563 1564 1564 1565 1565 1566 1567 1567 1567 1568 1568 1568 1570 1570 1570 1569 1570 1570 1571 1571 1571 1571 1571 1572 1572 1571
1544 1546 1548 1549 1551 1552 1553 1555 1557 1557 1558 1558 1559 1559 1560 1560 1561 1562 1562 1563 1564 1564 1564 1564 1565 1566 1565 1565 1567 1568 1568 1568 1568 1569 1569 1569 1569 1570 1570 1570 1570 1570
1543 1545 1546 1548 1549 1550 1552 1554 1555 1555 1556 1557 1557 1558 1558 1559 1559 1559 1560 1560 1561 1562 1562 1563 1564 1564 1564 1564 1564 1565 1565 1566 1567 1568 1568 1568 1568 1568 1568 1568 1568 1568
1538 1540 1542 1545 1546 1548 1550 1552 1552 1553 1554 1555 1555 1556 1556 1557 1557 1558 1558 1559 1559 1560 1560 1561 1562 1562 1562 1562 1563 1563 1564 1565 1566 1566 1566 1566 1567 1567 1567 1566 1565 1564
1538 1541 1543 1544 1546 1547 1548 1549 1550 1551 1552 1553 1553 1554 1555 1555 1555 1556 1556 1557 1557 1557 1558 1558 1559 1560 1560 1561 1561 1561 1562 1562 1563 1564 1564 1564 1565 1565 1565 1564 1563 1562
1542 1544 1543 1545 1546 1547 1547 1548 1549 1549 1550 1551 1551 1552 1553 1553 1553 1554 1554 1554 1555 1555 1556 1556 1556 1558 1559 1559 1559 1560 1560 1560 1561 1561 1562 1562 1562 1563 1563 1562 1562 1562
1541 1541 1541 1543 1544 1545 1546 1546 1547 1547 1548 1549 1549 1550 1550 1550 1551 1551 1550 1551 1552 1553 1554 1554 1554 1555 1556 1557 1557 1558 1559 1559 1558 1559 1559 1559 1560 1560 1561 1561 1561 1561
1537 1538 1539 1541 1542 1543 1543 1543 1544 1544 1545 1546 1546 1547 1547 1547 1547 1547 1547 1548 1549 1550 1551 1551 1551 1553 1553 1554 1555 1556 1557 1557 1556 1556 1556 1557 1557 1557 1558 1559 1559 1559
1534 1535 1537 1538 1539 1540 1541 1541 1541 1542 1542 1543 1544 1544 1545 1545 1545 1544 1544 1545 1546 1547 1548 1548 1549 1550 1551 1552 1553 1553 1554 1554 1555 1555 1554 1555 1555 1555 1556 1556 1557 1558
1532 1533 1535 1537 1537 1538 1538 1538 1539 1539 1540 1540 1541 1541 1542 1542 1542 1542 1542 1543 1544 1544 1545 1546 1547 1548 1549 1549 1550 1551 1551 1552 1552 1552 1552 1553 1553 1553 1554 1554 1554 1555
1531 1532 1533 1534 1534 1535 1536 1536 1536 1536 1537 1537 1538 1538 1538 1538 1539 1539 1539 1540 1541 1541 1542 1543 1544 1545 1546 1547 1547 1548 1549 1549 1549 1550 1550 1550 1551 1551 1552 1552 1552 1552
1528 1529 1531 1531 1531 1532 1532 1533 1533 1533 1533 1534 1534 1535 1535 1535 1536 1536 1536 1536 1537 1538 1539 1540 1541 1542 1543 1544 1545 1545 1546 1546 1547 1547 1548 1548 1548 1549 1549 1550 1550 1550
1526 1527 1528 1528 1528 1528 1528 1529 1529 1529 1530 1531 1531 1532 1533 1533 1533 1533 1533 1533 1534 1535 1536 1537 1539 1540 1541 1541 1542 1542 1543 1544 1545 1545 1546 1546 1546 1546 1547 1547 1548 1548
1523 1524 1524 1525 1524 1524 1524 1525 1526 1527 1528 1528 1528 1529 1529 1530 1530 1529 1529 1529 1531 1532 1533 1534 1536 1537 1538 1538 1539 1540 1541 1542 1543 1544 1544 1545 1545 1544 1544 1545 1545 1545
1521 1521 1521 1521 1521 1521 1522 1524 1525 1525 1525 1525 1525 1525 1525 1526 1526 1524 1524 1526 1528 1529 1530 1532 1533 1534 1535 1536 1536 1538 1539 1540 1541 1542 1542 1543 1543 1543 1543 1543 1543 1543
1519 1519 1520 1520 1520 1520 1522 1523 1523 1523 1523 1522 1522 1521 1522 1522 1520 1519 1521 1523 1525 1526 1528 1530 1532 1533 1534 1535 1535 1536 1537 1538 1539 1540 1540 1541 1541 1541 1541 1541 1541 1541